TimeEET,TemperatureF,Dew PointF,Humidity,Sea Level PressureIn,VisibilityMPH,Wind Direction,Wind SpeedMPH,Gust SpeedMPH,PrecipitationIn,Events,Conditions,WindDirDegrees,DateUTC
12:50 AM,48.2,44.6,87,30.15,6.2,Calm,Calm,-,N/A,,Scattered Clouds,0,2013-02-28 22:50:00
1:50 AM,46.4,42.8,87,30.15,6.2,Calm,Calm,-,N/A,,Scattered Clouds,0,2013-02-28 23:50:00
2:50 AM,44.6,42.8,93,30.12,6.2,Calm,Calm,-,N/A,,Scattered Clouds,0,2013-03-01 00:50:00
3:50 AM,42.8,41.0,93,30.12,6.2,North,4.6,-,N/A,,Scattered Clouds,350,2013-03-01 01:50:00
4:50 AM,42.8,39.2,87,30.12,6.2,NW,6.9,-,N/A,,Partly Cloudy,320,2013-03-01 02:50:00
5:20 AM,41.0,39.2,93,30.12,6.2,NNW,6.9,-,N/A,,Partly Cloudy,330,2013-03-01 03:20:00
5:50 AM,41.0,39.2,93,30.12,6.2,NNW,6.9,-,N/A,,Partly Cloudy,330,2013-03-01 03:50:00
6:20 AM,41.0,39.2,93,30.12,-9999.0,NNW,5.8,-,N/A,,Clear,340,2013-03-01 04:20:00
6:50 AM,41.0,39.2,93,30.12,5.0,NW,5.8,-,N/A,,Partly Cloudy,310,2013-03-01 04:50:00
7:20 AM,41.0,39.2,93,30.12,5.0,West,4.6,-,N/A,,Partly Cloudy,280,2013-03-01 05:20:00
7:50 AM,41.0,39.2,93,30.12,6.2,Calm,Calm,-,N/A,,Partly Cloudy,0,2013-03-01 05:50:00
8:20 AM,44.6,41.0,87,30.12,6.2,NNW,4.6,-,N/A,,Partly Cloudy,330,2013-03-01 06:20:00
8:50 AM,50.0,44.6,82,30.12,6.2,North,5.8,-,N/A,,Partly Cloudy,10,2013-03-01 06:50:00
9:20 AM,51.8,42.8,71,30.12,5.6,North,4.6,-,N/A,,Partly Cloudy,10,2013-03-01 07:20:00
9:50 AM,53.6,42.8,67,30.12,5.6,North,4.6,-,N/A,,Partly Cloudy,360,2013-03-01 07:50:00
10:20 AM,57.2,42.8,59,30.09,5.6,Calm,Calm,-,N/A,,Partly Cloudy,0,2013-03-01 08:20:00
10:50 AM,59.0,41.0,51,30.09,5.6,NW,4.6,-,N/A,,Partly Cloudy,320,2013-03-01 08:50:00
11:20 AM,60.8,41.0,48,30.09,5.0,ESE,4.6,-,N/A,,Partly Cloudy,110,2013-03-01 09:20:00
11:50 AM,60.8,41.0,48,30.09,6.2,Calm,Calm,-,N/A,,Partly Cloudy,0,2013-03-01 09:50:00
12:20 PM,60.8,44.6,55,30.09,6.2,South,6.9,-,N/A,,Partly Cloudy,170,2013-03-01 10:20:00
12:50 PM,59.0,44.6,59,30.06,6.2,SSE,8.1,-,N/A,,Partly Cloudy,160,2013-03-01 10:50:00
1:20 PM,60.8,42.8,52,30.06,6.2,South,6.9,-,N/A,,Partly Cloudy,170,2013-03-01 11:20:00
1:50 PM,60.8,44.6,55,30.04,6.2,South,8.1,-,N/A,,Partly Cloudy,170,2013-03-01 11:50:00
2:20 PM,59.0,44.6,59,30.04,6.2,South,9.2,-,N/A,,Scattered Clouds,180,2013-03-01 12:20:00
2:50 PM,59.0,44.6,59,30.04,6.2,South,9.2,-,N/A,,Scattered Clouds,170,2013-03-01 12:50:00
3:20 PM,59.0,42.8,55,30.04,6.2,SSE,9.2,-,N/A,,Scattered Clouds,160,2013-03-01 13:20:00
3:50 PM,59.0,42.8,55,30.04,6.2,South,9.2,-,N/A,,Scattered Clouds,170,2013-03-01 13:50:00
4:20 PM,57.2,44.6,63,30.04,6.2,South,9.2,-,N/A,,Scattered Clouds,170,2013-03-01 14:20:00
4:50 PM,57.2,44.6,63,30.01,6.2,SSE,8.1,-,N/A,,Scattered Clouds,160,2013-03-01 14:50:00
5:20 PM,57.2,44.6,63,30.01,6.2,South,9.2,-,N/A,,Scattered Clouds,170,2013-03-01 15:20:00
5:50 PM,55.4,44.6,67,30.04,6.2,SSE,8.1,-,N/A,,Scattered Clouds,160,2013-03-01 15:50:00
6:50 PM,55.4,44.6,67,30.04,6.2,Calm,Calm,-,N/A,,Scattered Clouds,0,2013-03-01 16:50:00
7:20 PM,53.6,46.4,77,30.04,6.2,Calm,Calm,-,N/A,,Scattered Clouds,0,2013-03-01 17:20:00
7:50 PM,53.6,46.4,77,30.04,6.2,Calm,Calm,-,N/A,,Scattered Clouds,0,2013-03-01 17:50:00
8:50 PM,50.0,44.6,82,30.01,6.2,Calm,Calm,-,N/A,,Scattered Clouds,0,2013-03-01 18:50:00
9:50 PM,48.2,44.6,87,30.04,6.2,Calm,Calm,-,N/A,,Partly Cloudy,0,2013-03-01 19:50:00
10:50 PM,46.4,42.8,87,30.01,6.2,Calm,Calm,-,N/A,,Partly Cloudy,0,2013-03-01 20:50:00
11:50 PM,44.6,42.8,93,30.01,6.2,Calm,Calm,-,N/A,,Partly Cloudy,0,2013-03-01 21:50:00